Location: Newark
(41.0400°S, 62.7845°W)
Time: 08:48:08
(UTC+00:00)

Transit 2A - Pass Details

Date: 03 December 2021
Orbit: 591 x 967 km, 66.7° (Epoch: 19 January)

Event Time Altitude Azimuth Distance (km) Brightness Sun altitude
Rises 15:05:01 0° 7° (N) 3,258 9.5 67.8°
Reaches altitude 10° 15:07:59 10° 21° (NNE) 2,267 8.9 68.1°
Maximum altitude 15:11:51 22° 70° (ENE) 1,537 8.2 68.5°
Drops below altitude 10° 15:15:29 10° 120° (ESE) 2,116 8.5 68.8°
Sets 15:18:08 0° 135° (SE) 2,984 9.0 69.1°
